Total_Precipitation_Accumulation
1.00 0.97 1.55 2.23 2.27 1.42 0.97 0.68 0.42 0.42 0.40 0.27 0.19 0.17 0.27 0.53 0.77 0.98 0.80 0.71 0.49 0.43 0.43 0.61 0.78 0.79 0.74 0.68 0.63 0.63 0.57 0.47 0.45 0.48 0.45 0.40 0.36 0.36 0.34 0.33 0.30 0.29 0.28 0.29 0.34 0.39 0.33 0.33 0.43
0.71 1.21 2.00 2.62 1.98 1.16 0.96 0.69 0.55 0.43 0.29 0.21 0.17 0.17 0.19 0.18 0.15 0.35 0.70 0.86 0.56 0.41 0.44 0.57 0.82 0.87 0.82 0.76 0.72 0.81 0.74 0.61 0.54 0.52 0.48 0.42 0.38 0.40 0.46 0.46 0.39 0.34 0.33 0.30 0.34 0.42 0.36 0.36 0.43
0.92 1.73 2.41 2.38 1.44 1.05 0.97 0.75 0.57 0.39 0.24 0.20 0.19 0.17 0.17 0.22 0.25 0.50 0.74 0.67 0.53 0.44 0.46 0.72 0.91 0.83 0.80 0.80 0.91 1.04 0.95 0.84 0.73 0.62 0.54 0.50 0.46 0.47 0.53 0.48 0.47 0.45 0.40 0.38 0.44 0.48 0.43 0.39 0.37
1.28 2.09 2.39 1.91 1.24 0.92 0.77 0.72 0.56 0.40 0.22 0.11 0.14 0.18 0.14 0.16 0.30 0.51 0.59 0.51 0.46 0.48 0.52 0.68 0.83 0.82 0.82 0.86 0.95 1.02 1.05 1.06 0.87 0.72 0.66 0.65 0.63 0.61 0.63 0.62 0.56 0.56 0.53 0.52 0.53 0.50 0.49 0.46 0.44
1.70 2.19 2.10 1.77 1.30 0.95 0.76 0.61 0.55 0.45 0.27 0.13 0.11 0.22 0.21 0.20 0.31 0.48 0.59 0.49 0.42 0.43 0.48 0.55 0.70 0.70 0.74 0.84 0.94 0.95 1.02 1.11 0.97 0.75 0.75 0.78 0.71 0.71 0.73 0.75 0.65 0.62 0.60 0.59 0.60 0.55 0.52 0.50 0.50
1.99 2.04 1.92 1.74 1.43 1.06 0.89 0.57 0.45 0.38 0.26 0.20 0.17 0.25 0.26 0.29 0.42 0.59 0.64 0.72 0.64 0.55 0.50 0.54 0.65 0.68 0.72 0.82 0.95 0.88 0.92 1.03 0.98 0.88 0.82 0.77 0.76 0.80 0.82 0.78 0.73 0.66 0.65 0.63 0.65 0.65 0.58 0.55 0.54
1.86 1.75 1.64 1.24 1.19 1.28 0.97 0.52 0.45 0.40 0.35 0.32 0.20 0.29 0.31 0.31 0.39 0.53 0.62 0.73 0.89 0.93 0.80 0.64 0.58 0.60 0.67 0.80 0.92 0.93 0.93 0.96 0.94 0.99 0.94 0.92 0.89 0.83 0.78 0.76 0.75 0.73 0.72 0.71 0.69 0.65 0.61 0.59 0.58
1.54 1.38 1.22 1.12 1.15 1.20 0.78 0.42 0.29 0.29 0.28 0.23 0.24 0.33 0.34 0.31 0.34 0.44 0.65 0.87 0.94 0.98 0.93 0.81 0.72 0.70 0.72 0.70 0.85 1.04 1.12 1.08 0.99 0.98 0.97 0.97 0.91 0.82 0.76 0.70 0.71 0.75 0.76 0.79 0.79 0.71 0.69 0.65 0.61
1.35 1.29 1.28 1.39 1.31 1.04 0.58 0.39 0.28 0.21 0.18 0.18 0.20 0.21 0.22 0.25 0.35 0.47 0.59 0.67 0.78 0.80 0.81 0.82 0.85 0.88 0.94 0.94 0.93 1.15 1.23 1.16 0.97 0.87 0.90 0.92 0.78 0.80 0.81 0.70 0.82 0.81 0.85 0.89 0.88 0.82 0.79 0.70 0.61
1.32 1.26 1.20 1.01 0.82 0.67 0.50 0.39 0.33 0.34 0.33 0.25 0.23 0.22 0.20 0.25 0.35 0.44 0.51 0.55 0.59 0.65 0.65 0.66 0.69 0.77 0.89 0.97 1.30 1.50 1.30 1.19 0.92 0.91 0.81 0.87 0.94 1.02 0.85 0.79 0.95 0.97 1.01 0.98 0.96 0.97 0.89 0.72 0.54
1.07 1.10 0.84 0.70 0.60 0.41 0.40 0.40 0.34 0.35 0.36 0.25 0.23 0.22 0.24 0.29 0.36 0.42 0.45 0.45 0.49 0.50 0.48 0.48 0.47 0.49 0.58 0.78 1.12 1.41 1.52 1.48 1.40 1.16 0.93 0.94 0.82 0.72 0.67 0.69 0.79 0.87 0.94 0.89 0.92 0.91 0.76 0.66 0.61
1.00 0.79 0.60 0.59 0.43 0.37 0.36 0.33 0.32 0.28 0.25 0.18 0.21 0.22 0.25 0.28 0.32 0.34 0.40 0.42 0.46 0.48 0.48 0.45 0.44 0.41 0.43 0.52 0.69 0.89 1.03 1.12 1.14 0.99 0.88 0.95 0.84 0.74 0.75 0.75 0.75 0.75 0.83 0.91 0.94 0.88 0.75 0.63 0.56
0.94 0.81 0.53 0.44 0.40 0.34 0.29 0.27 0.27 0.25 0.23 0.18 0.23 0.30 0.35 0.38 0.36 0.37 0.40 0.43 0.46 0.52 0.59 0.56 0.47 0.44 0.43 0.47 0.54 0.62 0.77 0.86 0.89 0.91 0.86 0.90 0.90 0.87 0.84 0.77 0.77 0.71 0.77 0.86 0.92 0.86 0.78 0.72 0.64
0.73 0.73 0.68 0.59 0.46 0.35 0.30 0.27 0.24 0.23 0.23 0.22 0.28 0.36 0.42 0.49 0.47 0.48 0.48 0.49 0.49 0.53 0.60 0.65 0.57 0.52 0.48 0.46 0.49 0.54 0.64 0.72 0.76 0.75 0.75 0.85 0.94 0.93 0.89 0.85 0.86 0.83 0.84 0.95 0.93 0.83 0.86 0.83 0.72
0.65 0.73 0.67 0.58 0.52 0.45 0.39 0.35 0.24 0.25 0.27 0.29 0.33 0.36 0.41 0.48 0.52 0.54 0.54 0.51 0.51 0.53 0.56 0.59 0.60 0.60 0.59 0.57 0.56 0.56 0.63 0.73 0.75 0.72 0.67 0.69 0.78 0.83 0.86 0.87 0.87 0.91 0.99 1.04 1.06 0.89 0.87 0.81 0.71
0.72 0.86 0.89 0.60 0.59 0.56 0.54 0.46 0.26 0.26 0.28 0.29 0.31 0.33 0.37 0.40 0.44 0.48 0.50 0.47 0.47 0.46 0.47 0.52 0.54 0.59 0.65 0.68 0.69 0.71 0.71 0.78 0.75 0.74 0.68 0.63 0.68 0.76 0.90 0.90 0.88 0.90 1.03 1.10 1.14 1.03 0.94 0.85 0.80
0.70 0.72 0.69 0.56 0.49 0.50 0.43 0.33 0.26 0.26 0.26 0.25 0.27 0.26 0.26 0.29 0.32 0.36 0.39 0.41 0.42 0.41 0.41 0.44 0.48 0.51 0.62 0.70 0.73 0.82 0.84 0.86 0.83 0.82 0.74 0.71 0.76 0.83 1.00 1.10 1.11 1.11 1.11 1.09 1.05 1.08 1.01 0.93 0.91
0.58 0.45 0.42 0.38 0.33 0.33 0.29 0.24 0.21 0.21 0.19 0.19 0.18 0.19 0.20 0.21 0.23 0.27 0.28 0.29 0.30 0.32 0.34 0.38 0.43 0.45 0.53 0.68 0.80 0.96 1.07 1.04 1.06 1.00 0.89 0.91 1.05 1.18 1.32 1.32 1.39 1.45 1.32 1.25 1.18 1.19 1.13 1.02 1.01
0.39 0.31 0.28 0.27 0.23 0.21 0.19 0.18 0.18 0.16 0.15 0.15 0.14 0.15 0.16 0.15 0.15 0.16 0.20 0.22 0.23 0.22 0.25 0.31 0.35 0.42 0.51 0.58 0.73 0.95 1.22 1.33 1.43 1.39 1.21 1.16 1.28 1.52 1.72 1.68 1.72 1.74 1.60 1.53 1.59 1.76 1.70 1.41 1.17
0.37 0.33 0.26 0.26 0.16 0.13 0.12 0.12 0.12 0.13 0.14 0.14 0.13 0.12 0.12 0.12 0.10 0.09 0.10 0.13 0.15 0.16 0.17 0.22 0.31 0.40 0.48 0.57 0.75 0.91 1.06 1.07 1.24 1.40 1.38 1.30 1.29 1.43 1.57 1.82 1.91 1.82 1.81 1.92 1.95 2.23 2.35 1.92 1.51
0.33 0.29 0.28 0.28 0.17 0.11 0.10 0.11 0.09 0.11 0.13 0.13 0.14 0.12 0.12 0.11 0.09 0.08 0.07 0.08 0.10 0.11 0.12 0.16 0.23 0.33 0.45 0.61 0.85 1.07 1.26 1.34 1.41 1.34 1.43 1.44 1.37 1.41 1.51 1.66 1.81 1.82 1.87 1.94 2.05 2.36 2.78 2.51 2.01
0.25 0.18 0.15 0.18 0.23 0.21 0.19 0.22 0.14 0.15 0.19 0.20 0.20 0.17 0.15 0.14 0.10 0.08 0.07 0.08 0.08 0.09 0.09 0.12 0.21 0.36 0.57 0.78 1.04 1.30 1.50 1.54 1.43 1.48 1.51 1.39 1.33 1.30 1.37 1.51 1.64 1.75 1.77 1.89 1.98 2.08 2.52 2.81 2.49
0.18 0.12 0.08 0.11 0.15 0.13 0.11 0.18 0.16 0.22 0.30 0.32 0.30 0.26 0.20 0.17 0.14 0.13 0.11 0.13 0.14 0.14 0.16 0.24 0.44 0.68 0.93 1.14 1.41 1.70 1.70 1.59 1.50 1.50 1.47 1.42 1.43 1.40 1.39 1.53 1.59 1.60 1.65 1.75 2.08 2.32 2.56 2.73 2.64
0.13 0.09 0.08 0.10 0.13 0.09 0.06 0.14 0.24 0.29 0.33 0.37 0.36 0.30 0.23 0.19 0.22 0.27 0.31 0.37 0.42 0.44 0.58 0.79 1.06 1.25 1.33 1.46 1.61 1.73 1.71 1.72 1.67 1.49 1.39 1.39 1.43 1.49 1.53 1.59 1.59 1.55 1.58 1.68 1.90 2.17 2.37 2.66 2.81
0.07 0.08 0.14 0.16 0.17 0.14 0.12 0.27 0.38 0.34 0.29 0.29 0.30 0.25 0.20 0.24 0.34 0.45 0.61 0.74 0.84 0.96 1.08 1.22 1.42 1.56 1.51 1.48 1.52 1.56 1.57 1.57 1.56 1.50 1.40 1.35 1.36 1.37 1.41 1.52 1.64 1.71 1.73 1.84 2.00 2.14 2.05 2.26 2.63
0.04 0.09 0.24 0.31 0.26 0.25 0.28 0.47 0.52 0.42 0.31 0.23 0.17 0.16 0.24 0.38 0.52 0.63 0.72 0.83 1.00 1.14 1.19 1.19 1.30 1.41 1.36 1.33 1.31 1.28 1.34 1.37 1.34 1.26 1.25 1.28 1.35 1.33 1.27 1.32 1.43 1.57 1.72 1.77 1.82 1.83 1.80 1.92 2.15
0.05 0.07 0.15 0.28 0.24 0.24 0.36 0.62 0.58 0.37 0.31 0.25 0.22 0.25 0.39 0.58 0.79 0.94 1.04 1.17 1.21 1.25 1.30 1.22 1.21 1.26 1.26 1.18 1.09 1.09 1.15 1.20 1.23 1.18 1.19 1.17 1.17 1.09 1.02 1.02 1.06 1.14 1.22 1.29 1.45 1.54 1.65 1.69 1.80
0.09 0.16 0.25 0.43 0.48 0.47 0.55 0.66 0.59 0.47 0.43 0.45 0.52 0.61 0.67 0.78 1.03 1.33 1.57 1.75 1.57 1.30 1.19 1.14 1.07 1.07 1.15 1.11 1.04 1.01 1.10 1.11 1.10 1.13 1.10 1.10 1.09 1.01 0.94 0.90 0.86 0.82 0.80 0.84 1.02 1.21 1.33 1.44 1.58
0.15 0.26 0.34 0.46 0.56 0.71 0.89 0.99 0.84 0.86 0.88 0.95 1.06 1.10 1.10 1.21 1.19 1.34 1.54 1.71 1.61 1.30 1.06 1.06 1.07 1.02 1.00 0.99 1.01 1.00 0.99 0.90 0.89 0.94 0.95 0.94 0.95 0.99 0.97 0.88 0.82 0.89 0.89 0.85 0.90 0.95 1.01 1.09 1.23
0.28 0.38 0.52 0.69 0.64 0.70 0.90 1.07 0.95 0.94 0.96 1.05 1.23 1.30 1.29 1.20 1.10 1.09 1.14 1.20 1.22 1.07 0.88 0.85 0.97 1.02 0.95 0.92 0.95 0.94 0.85 0.81 0.78 0.76 0.73 0.66 0.64 0.67 0.76 0.84 0.79 0.77 0.80 0.81 0.87 0.89 0.93 0.95 1.03